{"data":{"norad_id":57506,"epoch":"2026-09-20T13:30:49.621248Z","epoch_age_seconds":122494,"freshness":"FRESH","line1":"1 57506U 23113M   26263.56307432 -.00000217  00000+0  16327-5 0  9996","line2":"2 57506  43.0050 355.9397 0001521 270.5144  89.5534 15.27579115173312","mean_motion":15.27579115,"eccentricity":0.0001521,"inclination_deg":43.005,"raan_deg":355.9397,"arg_perigee_deg":270.5144,"mean_anomaly_deg":89.5534,"bstar":1.6327e-6,"rev_number":17331,"period_min":94.26680332691,"perigee_km":482.00815924104,"apogee_km":484.09533285758,"semimajor_km":6861.1887460493,"source":"CELESTRAK","updated_at":"2026-09-21T09:00:33.634115Z"}}